Hourly Data Report for April 18, 2003

TORONTO CITY
ONTARIO

43°40'00.000" N
79°24'00.000" W
112.50 m
6158355
71508
XTO

Download Data

Hourly Data (April 2003)
Hourly Data Report for April 18, 2003
TIME
LST
Temp Definition
°C
Dew Point Definition
°C
Rel Hum Definition
%
Precip. Amount Definition
mm

Wind Dir Definition
10's deg

Wind Spd Definition
km/h
Visibility Definition
km
Stn Press Definition
kPa
Hmdx Definition


Wind Chill Definition


Weather Definition


00:00 2.9 -2.4 68   LegendMM LegendMM LegendMM 100.72     LegendNANA
01:00 2.9 -1.6 72   LegendMM LegendMM LegendMM 100.68     LegendNANA
02:00 3.2 -0.3 78   LegendMM LegendMM LegendMM 100.64     LegendNANA
03:00 3.8 0.4 78   LegendMM LegendMM LegendMM 100.63     LegendNANA
04:00 4.3 1.0 79   LegendMM LegendMM LegendMM 100.65     LegendNANA
05:00 4.5 1.3 80   LegendMM LegendMM LegendMM 100.65     LegendNANA
06:00 4.6 1.4 80   LegendMM LegendMM LegendMM 100.71     LegendNANA
07:00 5.2 1.4 76   LegendMM LegendMM LegendMM 100.75     LegendNANA
08:00 5.2 1.3 76   LegendMM LegendMM LegendMM 100.81     LegendNANA
09:00 5.4 1.5 76   LegendMM LegendMM LegendMM 100.84     LegendNANA
10:00 5.8 1.5 74   LegendMM LegendMM LegendMM 100.85     LegendNANA
11:00 7.0 2.9 75   LegendMM LegendMM LegendMM 100.87     LegendNANA
12:00 8.8 3.0 67   LegendMM LegendMM LegendMM 100.89     LegendNANA
13:00 8.2 2.6 68   LegendMM LegendMM LegendMM 100.91     LegendNANA
14:00 9.5 3.0 64   LegendMM LegendMM LegendMM 100.88     LegendNANA
15:00 10.2 3.4 63   LegendMM LegendMM LegendMM 100.82     LegendNANA
16:00 10.0 3.0 62   LegendMM LegendMM LegendMM 100.86     LegendNANA
17:00 10.5 3.5 62   LegendMM LegendMM LegendMM 100.88     LegendNANA
18:00 11.4 4.6 63   LegendMM LegendMM LegendMM 100.90     LegendNANA
19:00 11.5 5.2 65   LegendMM LegendMM LegendMM 100.86     LegendNANA
20:00 9.7 4.8 71   LegendMM LegendMM LegendMM 100.93     LegendNANA
21:00 10.1 5.7 74   LegendMM LegendMM LegendMM 100.98     LegendNANA
22:00 10.0 5.6 74   LegendMM LegendMM LegendMM 101.00     LegendNANA
23:00 10.2 5.4 72   LegendMM LegendMM LegendMM 101.01     LegendNANA

Notes on Data Quality.

Legend

  • E = Estimated
  • M = Missing
  • NA = Not Available*
  • [empty] = Indicates an unobserved value
Date modified: